PDG61 EGCM-EGCM

Flight info

Callsign PDG61
Flight time 4h 25m
Altitude 400
Route POWERLINE INSPECTION
Aircraft AS55/L-VGD/A

Departure

Time 2026-04-11 10:56
Airport Leeds East Airport (EGCM)

Arrival

Time 2026-04-11 15:22
Airport Leeds East Airport (EGCM)
Time Latitude Longitude Altitude Speed Heading
2026-04-11 10:52 53.83594 -1.19755 19 ft 0 kts 179°
2026-04-11 10:55 53.83563 -1.19694 44 ft 25 kts 167°
2026-04-11 10:55 53.83375 -1.19721 55 ft 60 kts 229°
2026-04-11 10:56 53.83035 -1.20502 151 ft 88 kts 231°
2026-04-11 10:56 53.82664 -1.21260 619 ft 82 kts 229°
2026-04-11 10:56 53.82326 -1.22004 1076 ft 77 kts 237°
2026-04-11 10:56 53.82030 -1.22814 1490 ft 83 kts 231°
2026-04-11 10:57 53.81715 -1.23662 1884 ft 90 kts 236°
2026-04-11 10:57 53.81400 -1.24673 1971 ft 110 kts 240°
2026-04-11 10:57 53.80986 -1.25910 1910 ft 124 kts 237°
2026-04-11 10:57 53.80479 -1.27085 1919 ft 128 kts 224°
2026-04-11 10:58 53.79663 -1.27705 1912 ft 133 kts 195°
2026-04-11 10:58 53.78737 -1.27851 1909 ft 135 kts 186°
2026-04-11 10:58 53.77794 -1.27839 1909 ft 136 kts 183°
2026-04-11 10:58 53.76843 -1.27805 1910 ft 137 kts 184°
2026-04-11 10:59 53.75892 -1.27793 1910 ft 137 kts 185°
2026-04-11 10:59 53.74938 -1.27814 1910 ft 137 kts 186°
2026-04-11 10:59 53.73991 -1.27873 1909 ft 135 kts 187°
2026-04-11 10:59 53.73052 -1.27954 1906 ft 135 kts 188°
2026-04-11 11:00 53.72114 -1.28042 1906 ft 134 kts 188°
2026-04-11 11:00 53.71182 -1.28133 1914 ft 134 kts 188°
2026-04-11 11:00 53.70255 -1.28222 1916 ft 134 kts 188°
2026-04-11 11:00 53.69328 -1.28321 1915 ft 133 kts 188°
2026-04-11 11:01 53.68394 -1.28427 1919 ft 135 kts 188°
2026-04-11 11:01 53.67447 -1.28547 1918 ft 138 kts 189°
2026-04-11 11:01 53.66483 -1.28680 1917 ft 140 kts 189°
2026-04-11 11:01 53.65516 -1.28824 1913 ft 138 kts 189°
2026-04-11 11:02 53.64567 -1.28960 1915 ft 136 kts 189°
2026-04-11 11:02 53.63624 -1.29091 1916 ft 136 kts 189°
2026-04-11 11:02 53.62681 -1.29217 1917 ft 136 kts 189°
2026-04-11 11:02 53.61732 -1.29341 1918 ft 137 kts 189°
2026-04-11 11:03 53.60777 -1.29464 1916 ft 138 kts 189°
2026-04-11 11:03 53.59818 -1.29588 1917 ft 138 kts 188°
2026-04-11 11:03 53.58859 -1.29717 1917 ft 138 kts 189°
2026-04-11 11:03 53.57916 -1.29841 1918 ft 138 kts 189°
2026-04-11 11:04 53.56962 -1.29957 1926 ft 138 kts 188°
2026-04-11 11:04 53.56262 -1.29206 1909 ft 126 kts 104°
2026-04-11 11:04 53.56640 -1.28204 1362 ft 99 kts 26°
2026-04-11 11:04 53.57297 -1.27836 893 ft 102 kts
2026-04-11 11:05 53.57931 -1.27358 622 ft 98 kts 33°
2026-04-11 11:05 53.58406 -1.26809 313 ft 72 kts 339°
2026-04-11 11:05 53.58726 -1.26840 288 ft 28 kts 206°
2026-04-11 11:05 53.58790 -1.27141 259 ft 28 kts 220°
2026-04-11 11:06 53.58689 -1.27373 217 ft 20 kts 205°
2026-04-11 11:06 53.58608 -1.27532 217 ft 34 kts 153°
2026-04-11 11:06 53.58500 -1.27966 196 ft 29 kts 200°
2026-04-11 11:06 53.58422 -1.28116 198 ft 27 kts 210°
2026-04-11 11:07 53.58288 -1.28475 234 ft 43 kts 213°
2026-04-11 11:07 53.58157 -1.28963 233 ft 46 kts 220°
2026-04-11 11:07 53.58016 -1.29409 257 ft 45 kts 214°
2026-04-11 11:07 53.57895 -1.29915 136 ft 49 kts 223°
2026-04-11 11:08 53.57737 -1.30188 176 ft 20 kts 226°
2026-04-11 11:08 53.57840 -1.30029 128 ft 42 kts 141°
2026-04-11 11:08 53.57979 -1.29625 175 ft 44 kts 118°
2026-04-11 11:08 53.58136 -1.29200 167 ft 36 kts 147°
2026-04-11 11:09 53.58319 -1.28885 219 ft 40 kts 126°
2026-04-11 11:09 53.58561 -1.28437 436 ft 23 kts 268°
2026-04-11 11:09 53.58455 -1.28330 197 ft 25 kts 135°
2026-04-11 11:09 53.58465 -1.28105 125 ft 15 kts 137°
2026-04-11 11:10 53.58447 -1.28135 137 ft 10 kts 252°
2026-04-11 11:10 53.58502 -1.28186 318 ft 18 kts 287°
2026-04-11 11:10 53.58602 -1.27960 115 ft 30 kts 115°
2026-04-11 11:10 53.58720 -1.27783 108 ft 50 kts 122°
2026-04-11 11:11 53.58723 -1.27306 218 ft 25 kts 173°
2026-04-11 11:11 53.58558 -1.27436 450 ft 64 kts 223°
2026-04-11 11:11 53.58172 -1.28180 456 ft 109 kts 232°
2026-04-11 11:11 53.57645 -1.29193 482 ft 121 kts 227°
2026-04-11 11:12 53.57062 -1.30252 462 ft 124 kts 227°
2026-04-11 11:12 53.56466 -1.31312 462 ft 125 kts 226°
2026-04-11 11:12 53.55872 -1.32384 379 ft 126 kts 230°
2026-04-11 11:12 53.55475 -1.33044 446 ft 51 kts 239°
2026-04-11 11:13 53.55169 -1.33504 346 ft 64 kts 207°
2026-04-11 11:13 53.54756 -1.33753 396 ft 66 kts 207°
2026-04-11 11:13 53.54341 -1.34042 399 ft 68 kts 212°
2026-04-11 11:13 53.53955 -1.34441 428 ft 63 kts 247°
2026-04-11 11:14 53.53965 -1.35209 293 ft 56 kts 265°
2026-04-11 11:14 53.53733 -1.35578 145 ft 58 kts 177°
2026-04-11 11:14 53.53383 -1.35441 202 ft 51 kts 229°
2026-04-11 11:14 53.53040 -1.35659 226 ft 51 kts 250°
2026-04-11 11:15 53.52702 -1.35860 172 ft 50 kts 240°
2026-04-11 11:15 53.52643 -1.35856 207 ft 60 kts 175°
2026-04-11 11:15 53.52445 -1.35908 131 ft 44 kts 245°
2026-04-11 11:15 53.52164 -1.35958 378 ft 24 kts 238°
2026-04-11 11:16 53.51917 -1.36366 349 ft 61 kts 251°
2026-04-11 11:16 53.51666 -1.36797 190 ft 56 kts 225°
2026-04-11 11:16 53.51774 -1.37416 222 ft 50 kts 285°
2026-04-11 11:16 53.51672 -1.37871 200 ft 47 kts 268°
2026-04-11 11:17 53.51385 -1.38145 218 ft 50 kts 249°
2026-04-11 11:17 53.51108 -1.38298 299 ft 40 kts 199°
2026-04-11 11:17 53.50915 -1.38257 307 ft 46 kts 188°
2026-04-11 11:17 53.50531 -1.38109 354 ft 40 kts 183°
2026-04-11 11:18 53.50338 -1.38035 362 ft 41 kts 192°
2026-04-11 11:18 53.50084 -1.37523 437 ft 99 kts 66°
2026-04-11 11:18 53.50500 -1.37046 1242 ft 69 kts 25°
2026-04-11 11:18 53.51028 -1.36426 1551 ft 110 kts 27°
2026-04-11 11:19 53.51495 -1.35910 1668 ft 118 kts 31°
2026-04-11 11:19 53.51953 -1.35344 2509 ft 82 kts 28°
2026-04-11 11:19 53.52487 -1.34693 2938 ft 108 kts 28°
2026-04-11 11:19 53.53176 -1.33898 3155 ft 132 kts 28°
2026-04-11 11:20 53.53989 -1.32985 3204 ft 153 kts 28°
2026-04-11 11:20 53.54903 -1.31973 3093 ft 153 kts 31°
2026-04-11 11:20 53.55742 -1.31021 3145 ft 140 kts 31°
2026-04-11 11:20 53.56535 -1.30133 3160 ft 134 kts 30°
2026-04-11 11:21 53.57305 -1.29276 3163 ft 132 kts 29°
2026-04-11 11:21 53.58071 -1.28437 3165 ft 131 kts 29°
2026-04-11 11:21 53.58841 -1.27611 3164 ft 131 kts 28°
2026-04-11 11:21 53.59619 -1.26790 3164 ft 133 kts 28°
2026-04-11 11:22 53.60400 -1.25972 3162 ft 132 kts 28°
2026-04-11 11:22 53.61178 -1.25165 3163 ft 131 kts 27°
2026-04-11 11:22 53.61956 -1.24351 3167 ft 132 kts 27°
2026-04-11 11:22 53.62739 -1.23531 3165 ft 133 kts 27°
2026-04-11 11:23 53.63523 -1.22703 3163 ft 133 kts 27°
2026-04-11 11:23 53.64308 -1.21873 3163 ft 133 kts 27°
2026-04-11 11:23 53.65088 -1.21049 3167 ft 133 kts 27°
2026-04-11 11:23 53.65871 -1.20229 3167 ft 133 kts 27°
2026-04-11 11:24 53.66659 -1.19416 3163 ft 131 kts 27°
2026-04-11 11:24 53.67431 -1.18620 3168 ft 130 kts 27°
2026-04-11 11:24 53.68209 -1.17819 3166 ft 132 kts 27°
2026-04-11 11:24 53.68980 -1.17017 3167 ft 130 kts 27°
2026-04-11 11:25 53.69753 -1.16219 3168 ft 130 kts 27°
2026-04-11 11:25 53.70522 -1.15428 3166 ft 129 kts 27°
2026-04-11 11:25 53.71292 -1.14639 3168 ft 129 kts 27°
2026-04-11 11:25 53.72058 -1.13847 3168 ft 129 kts 27°
2026-04-11 11:26 53.72825 -1.13046 3167 ft 130 kts 27°
2026-04-11 11:26 53.73593 -1.12246 3173 ft 129 kts 27°
2026-04-11 11:26 53.74370 -1.11462 3170 ft 131 kts 27°
2026-04-11 11:26 53.75159 -1.10686 3166 ft 132 kts 27°
2026-04-11 11:27 53.75955 -1.09904 3162 ft 132 kts 26°
2026-04-11 11:27 53.76748 -1.09109 3162 ft 133 kts 27°
2026-04-11 11:27 53.77540 -1.08315 3161 ft 132 kts 27°
2026-04-11 11:27 53.78324 -1.07533 3161 ft 130 kts 27°
2026-04-11 11:28 53.79105 -1.06763 3164 ft 130 kts 27°
2026-04-11 11:28 53.79889 -1.05993 3163 ft 130 kts 26°
2026-04-11 11:28 53.80663 -1.05231 3162 ft 131 kts 26°
2026-04-11 11:28 53.81445 -1.04455 3155 ft 130 kts 26°
2026-04-11 11:29 53.82985 -1.02885 3166 ft 129 kts 27°
2026-04-11 11:29 53.83753 -1.02099 3166 ft 129 kts 26°
2026-04-11 11:29 53.84520 -1.01321 3162 ft 129 kts 26°
2026-04-11 11:30 53.85288 -1.00545 3163 ft 128 kts 26°
2026-04-11 11:30 53.86057 -0.99776 3162 ft 128 kts 26°
2026-04-11 11:30 53.86826 -0.99016 3162 ft 128 kts 26°
2026-04-11 11:30 53.87596 -0.98250 3163 ft 129 kts 26°
2026-04-11 11:31 53.88368 -0.97470 3163 ft 130 kts 26°
2026-04-11 11:31 53.89145 -0.96684 3162 ft 130 kts 26°
2026-04-11 11:31 53.89926 -0.95904 3161 ft 130 kts 26°
2026-04-11 11:31 53.90708 -0.95137 3163 ft 130 kts 26°
2026-04-11 11:32 53.91489 -0.94369 3165 ft 130 kts 26°
2026-04-11 11:32 53.92274 -0.93594 3167 ft 132 kts 26°
2026-04-11 11:32 53.93073 -0.92800 3166 ft 135 kts 26°
2026-04-11 11:32 53.93882 -0.92001 3164 ft 134 kts 26°
2026-04-11 11:33 53.94684 -0.91213 3156 ft 136 kts 26°
2026-04-11 11:33 53.95520 -0.90398 3158 ft 138 kts 26°
2026-04-11 11:33 53.96362 -0.89578 3157 ft 141 kts 26°
2026-04-11 11:33 53.97210 -0.88751 3155 ft 140 kts 26°
2026-04-11 11:34 53.98042 -0.87937 3160 ft 139 kts 26°
2026-04-11 11:34 53.98877 -0.87117 3158 ft 138 kts 26°
2026-04-11 11:34 53.99715 -0.86293 3169 ft 138 kts 26°
2026-04-11 11:34 54.00539 -0.85480 3165 ft 140 kts 26°
2026-04-11 11:35 54.01394 -0.84637 3162 ft 144 kts 25°
2026-04-11 11:35 54.02263 -0.83777 3163 ft 145 kts 26°
2026-04-11 11:35 54.03136 -0.82913 3163 ft 145 kts 26°
2026-04-11 11:35 54.03969 -0.82013 3033 ft 111 kts 99°
2026-04-11 11:36 54.03237 -0.81839 1676 ft 146 kts 195°
2026-04-11 11:36 54.02288 -0.82492 1035 ft 152 kts 210°
2026-04-11 11:36 54.02091 -0.82658 1005 ft 146 kts 208°
2026-04-11 11:36 54.02021 -0.82717 1007 ft 143 kts 209°
2026-04-11 11:37 54.01493 -0.83155 793 ft 137 kts 212°
2026-04-11 11:37 54.00869 -0.83764 609 ft 129 kts 216°
2026-04-11 11:37 54.00530 -0.84164 691 ft 109 kts 212°
2026-04-11 11:37 53.99555 -0.85357 370 ft 124 kts 230°
2026-04-11 11:38 53.98957 -0.85940 290 ft 96 kts 197°
2026-04-11 11:38 53.98586 -0.86101 157 ft 70 kts 197°
2026-04-11 11:38 53.98068 -0.86386 113 ft 73 kts 202°
2026-04-11 11:38 53.97877 -0.86337 69 ft 3 kts 226°
2026-04-11 11:39 53.97874 -0.86352 52 ft 0 kts 240°
2026-04-11 14:00 53.97907 -0.86253 54 ft 0 kts 237°
2026-04-11 14:02 53.97907 -0.86255 55 ft 2 kts 204°
2026-04-11 14:02 53.97757 -0.86623 318 ft 52 kts 227°
2026-04-11 14:03 53.97465 -0.87108 589 ft 72 kts 219°
2026-04-11 14:03 53.96940 -0.87569 620 ft 100 kts 193°
2026-04-11 14:03 53.96176 -0.87256 588 ft 124 kts 162°
2026-04-11 14:03 53.95377 -0.86570 578 ft 133 kts 156°
2026-04-11 14:04 53.94495 -0.86211 576 ft 131 kts 183°
2026-04-11 14:04 53.93596 -0.86449 580 ft 131 kts 197°
2026-04-11 14:04 53.92733 -0.86873 582 ft 128 kts 199°
2026-04-11 14:04 53.91883 -0.87360 584 ft 128 kts 201°
2026-04-11 14:05 53.91061 -0.87850 583 ft 126 kts 201°
2026-04-11 14:05 53.90234 -0.88352 586 ft 126 kts 201°
2026-04-11 14:05 53.89415 -0.88852 586 ft 125 kts 200°
2026-04-11 14:05 53.88590 -0.89365 589 ft 127 kts 201°
2026-04-11 14:06 53.87754 -0.89877 588 ft 128 kts 201°
2026-04-11 14:06 53.86917 -0.90409 586 ft 128 kts 204°
2026-04-11 14:06 53.86138 -0.91107 585 ft 126 kts 209°
2026-04-11 14:06 53.85409 -0.91927 586 ft 125 kts 213°
2026-04-11 14:07 53.84692 -0.92781 587 ft 126 kts 214°
2026-04-11 14:07 53.83969 -0.93617 590 ft 127 kts 213°
2026-04-11 14:07 53.83227 -0.94429 591 ft 125 kts 213°
2026-04-11 14:07 53.82507 -0.95199 589 ft 121 kts 211°
2026-04-11 14:08 53.81799 -0.95973 594 ft 120 kts 211°
2026-04-11 14:08 53.81080 -0.96762 591 ft 126 kts 213°
2026-04-11 14:08 53.80336 -0.97546 592 ft 127 kts 211°
2026-04-11 14:08 53.79589 -0.98338 593 ft 124 kts 211°
2026-04-11 14:09 53.78867 -0.99106 590 ft 122 kts 211°
2026-04-11 14:09 53.78156 -0.99850 594 ft 120 kts 211°
2026-04-11 14:09 53.77427 -1.00586 591 ft 123 kts 212°
2026-04-11 14:09 53.76691 -1.01314 592 ft 123 kts 210°
2026-04-11 14:10 53.75962 -1.02059 594 ft 121 kts 210°
2026-04-11 14:10 53.75243 -1.02810 594 ft 122 kts 211°
2026-04-11 14:10 53.74523 -1.03547 589 ft 121 kts 212°
2026-04-11 14:10 53.73801 -1.04266 592 ft 120 kts 211°
2026-04-11 14:11 53.73076 -1.04975 586 ft 120 kts 211°
2026-04-11 14:11 53.72357 -1.05676 594 ft 121 kts 210°
2026-04-11 14:11 53.71618 -1.06399 595 ft 122 kts 211°
2026-04-11 14:11 53.70884 -1.07105 589 ft 122 kts 210°
2026-04-11 14:12 53.70163 -1.07803 590 ft 116 kts 210°
2026-04-11 14:12 53.69455 -1.08483 590 ft 120 kts 211°
2026-04-11 14:12 53.68725 -1.09177 595 ft 120 kts 211°
2026-04-11 14:12 53.67993 -1.09871 591 ft 123 kts 211°
2026-04-11 14:13 53.67243 -1.10592 594 ft 128 kts 210°
2026-04-11 14:13 53.66460 -1.11354 593 ft 131 kts 212°
2026-04-11 14:13 53.65668 -1.12096 592 ft 129 kts 211°
2026-04-11 14:13 53.64887 -1.12817 591 ft 127 kts 209°
2026-04-11 14:14 53.64119 -1.13556 594 ft 126 kts 211°
2026-04-11 14:14 53.63357 -1.14303 591 ft 128 kts 210°
2026-04-11 14:14 53.62584 -1.15059 592 ft 127 kts 211°
2026-04-11 14:14 53.61834 -1.15773 587 ft 122 kts 209°
2026-04-11 14:15 53.61101 -1.16480 594 ft 122 kts 209°
2026-04-11 14:15 53.60352 -1.17228 593 ft 128 kts 211°
2026-04-11 14:15 53.59593 -1.17981 588 ft 126 kts 211°
2026-04-11 14:15 53.58835 -1.18717 595 ft 124 kts 210°
2026-04-11 14:16 53.58097 -1.19433 595 ft 122 kts 210°
2026-04-11 14:16 53.57364 -1.20154 589 ft 121 kts 210°
2026-04-11 14:16 53.56655 -1.20838 589 ft 114 kts 211°
2026-04-11 14:16 53.55960 -1.21457 596 ft 113 kts 209°
2026-04-11 14:17 53.55326 -1.22244 593 ft 116 kts 229°
2026-04-11 14:17 53.54994 -1.23522 592 ft 124 kts 249°
2026-04-11 14:17 53.54797 -1.24976 591 ft 131 kts 252°
2026-04-11 14:17 53.54661 -1.26485 584 ft 130 kts 253°
2026-04-11 14:18 53.54546 -1.27985 580 ft 128 kts 253°
2026-04-11 14:18 53.54436 -1.29464 591 ft 127 kts 253°
2026-04-11 14:18 53.54302 -1.30917 585 ft 128 kts 255°
2026-04-11 14:18 53.54124 -1.32415 586 ft 130 kts 252°
2026-04-11 14:19 53.53927 -1.33909 588 ft 131 kts 251°
2026-04-11 14:19 53.53704 -1.35399 590 ft 135 kts 250°
2026-04-11 14:19 53.53505 -1.36870 585 ft 123 kts 249°
2026-04-11 14:19 53.53362 -1.38235 597 ft 118 kts 250°
2026-04-11 14:20 53.53201 -1.39620 596 ft 121 kts 245°
2026-04-11 14:20 53.53029 -1.41016 590 ft 123 kts 249°
2026-04-11 14:20 53.52778 -1.42287 657 ft 104 kts 192°
2026-04-11 14:20 53.52211 -1.41273 693 ft 133 kts 134°
2026-04-11 14:21 53.51725 -1.39934 659 ft 117 kts 129°
2026-04-11 14:21 53.51467 -1.38863 549 ft 72 kts 146°
2026-04-11 14:21 53.51092 -1.38359 567 ft 77 kts 167°
2026-04-11 14:21 53.50583 -1.38095 637 ft 67 kts 106°
2026-04-11 14:22 53.50812 -1.37530 488 ft 48 kts 70°
2026-04-11 14:22 53.50996 -1.37119 351 ft 49 kts 298°
2026-04-11 14:22 53.50850 -1.36985 364 ft 67 kts 70°
2026-04-11 14:22 53.51040 -1.36727 334 ft 29 kts 280°
2026-04-11 14:23 53.51086 -1.36899 331 ft 59 kts 143°
2026-04-11 14:23 53.50881 -1.36035 334 ft 82 kts 99°
2026-04-11 14:23 53.51019 -1.35139 258 ft 82 kts 77°
2026-04-11 14:23 53.51355 -1.34128 313 ft 97 kts 101°
2026-04-11 14:24 53.51351 -1.34227 228 ft 63 kts 133°
2026-04-11 14:24 53.51250 -1.33544 259 ft 69 kts 165°
2026-04-11 14:24 53.51187 -1.32889 309 ft 30 kts 346°
2026-04-11 14:24 53.51353 -1.32350 203 ft 58 kts 162°
2026-04-11 14:25 53.51376 -1.31792 169 ft 24 kts 204°
2026-04-11 14:25 53.51365 -1.31751 171 ft 6 kts 225°
2026-04-11 14:27 53.51450 -1.31383 272 ft 54 kts 182°
2026-04-11 14:27 53.51521 -1.30714 296 ft 63 kts 162°
2026-04-11 14:27 53.51605 -1.30017 478 ft 45 kts 156°
2026-04-11 14:28 53.51689 -1.29075 156 ft 119 kts 90°
2026-04-11 14:28 53.51606 -1.28847 466 ft 79 kts 252°
2026-04-11 14:28 53.51545 -1.30002 390 ft 113 kts 261°
2026-04-11 14:28 53.51483 -1.31358 412 ft 124 kts 256°
2026-04-11 14:29 53.51372 -1.32694 686 ft 100 kts 255°
2026-04-11 14:29 53.51286 -1.33676 276 ft 76 kts 252°
2026-04-11 14:29 53.51258 -1.34358 219 ft 63 kts 234°
2026-04-11 14:29 53.51110 -1.34871 208 ft 19 kts 189°
2026-04-11 14:30 53.51032 -1.35060 206 ft 34 kts 239°
2026-04-11 14:30 53.50948 -1.35443 178 ft 49 kts 243°
2026-04-11 14:30 53.50800 -1.35976 262 ft 33 kts 238°
2026-04-11 14:30 53.50705 -1.36348 294 ft 36 kts 244°
2026-04-11 14:31 53.50606 -1.36786 299 ft 30 kts 234°
2026-04-11 14:31 53.50573 -1.36832 298 ft 5 kts 149°
2026-04-11 14:31 53.50615 -1.36669 288 ft 58 kts 354°
2026-04-11 14:31 53.50684 -1.36827 364 ft 20 kts 176°
2026-04-11 14:32 53.50541 -1.36809 348 ft 25 kts 200°
2026-04-11 14:32 53.50534 -1.37071 330 ft 19 kts 191°
2026-04-11 14:32 53.50510 -1.37278 323 ft 20 kts 160°
2026-04-11 14:32 53.50338 -1.37550 358 ft 38 kts 199°
2026-04-11 14:33 53.50262 -1.37635 359 ft 3 kts 204°
2026-04-11 14:33 53.50411 -1.37453 224 ft 52 kts 287°
2026-04-11 14:33 53.50612 -1.37324 265 ft 33 kts 324°
2026-04-11 14:33 53.50719 -1.36700 453 ft 72 kts 110°
2026-04-11 14:34 53.50889 -1.35588 698 ft 110 kts 98°
2026-04-11 14:34 53.50647 -1.34181 462 ft 81 kts 104°
2026-04-11 14:34 53.50752 -1.33745 397 ft 35 kts 75°
2026-04-11 14:34 53.50882 -1.33527 303 ft 49 kts 54°
2026-04-11 14:35 53.50776 -1.33591 202 ft 41 kts 211°
2026-04-11 14:35 53.50562 -1.33232 238 ft 47 kts 162°
2026-04-11 14:35 53.50391 -1.32917 247 ft 23 kts 212°
2026-04-11 14:35 53.50286 -1.32965 142 ft 9 kts 221°
2026-04-11 14:36 53.50278 -1.32979 168 ft 1 kts 239°
2026-04-11 14:36 53.50265 -1.32983 103 ft 7 kts 191°
2026-04-11 14:36 53.50398 -1.32702 312 ft 38 kts 299°
2026-04-11 14:36 53.50291 -1.32908 141 ft 25 kts 240°
2026-04-11 14:37 53.50269 -1.32994 123 ft 2 kts 253°
2026-04-11 14:38 53.50214 -1.32935 142 ft 22 kts 242°
2026-04-11 14:38 53.50074 -1.32748 138 ft 44 kts 195°
2026-04-11 14:38 53.49920 -1.32328 170 ft 46 kts 128°
2026-04-11 14:39 53.49732 -1.31910 173 ft 34 kts 163°
2026-04-11 14:39 53.49631 -1.31666 183 ft 38 kts 106°
2026-04-11 14:39 53.49575 -1.31242 177 ft 47 kts 356°
2026-04-11 14:39 53.49492 -1.30823 178 ft 44 kts 202°
2026-04-11 14:40 53.49223 -1.30704 212 ft 37 kts 223°
2026-04-11 14:40 53.48902 -1.30622 162 ft 51 kts 188°
2026-04-11 14:40 53.48542 -1.30605 144 ft 59 kts 197°
2026-04-11 14:40 53.48177 -1.30642 152 ft 29 kts 214°
2026-04-11 14:41 53.48044 -1.30872 175 ft 29 kts 218°
2026-04-11 14:41 53.47914 -1.31165 175 ft 46 kts 250°
2026-04-11 14:41 53.47787 -1.31611 224 ft 42 kts 202°
2026-04-11 14:41 53.47748 -1.31524 252 ft 8 kts 255°
2026-04-11 14:42 53.47733 -1.31572 223 ft 20 kts 211°
2026-04-11 14:42 53.47469 -1.31824 246 ft 49 kts 195°
2026-04-11 14:42 53.47214 -1.31794 358 ft 35 kts 197°
2026-04-11 14:43 53.46971 -1.31710 178 ft 33 kts 227°
2026-04-11 14:43 53.46921 -1.31862 131 ft 25 kts 192°
2026-04-11 14:43 53.46749 -1.31698 243 ft 58 kts 18°
2026-04-11 14:43 53.46858 -1.31639 200 ft 7 kts 209°
2026-04-11 14:44 53.46816 -1.31637 160 ft 14 kts 204°
2026-04-11 14:44 53.46590 -1.31782 347 ft 55 kts 179°
2026-04-11 14:44 53.46348 -1.30909 533 ft 108 kts 128°
2026-04-11 14:44 53.46093 -1.29751 857 ft 101 kts 126°
2026-04-11 14:45 53.45728 -1.28611 975 ft 120 kts 137°
2026-04-11 14:45 53.45222 -1.27415 1049 ft 133 kts 139°
2026-04-11 14:45 53.44776 -1.26453 1146 ft 116 kts 149°
2026-04-11 14:45 53.44152 -1.25342 969 ft 145 kts 133°
2026-04-11 14:46 53.44407 -1.24884 804 ft 45 kts 253°
2026-04-11 14:46 53.44193 -1.25102 524 ft 37 kts 174°
2026-04-11 14:46 53.44063 -1.25265 544 ft 22 kts 336°
2026-04-11 14:46 53.44229 -1.25342 461 ft 46 kts 323°
2026-04-11 14:47 53.44283 -1.25285 386 ft 25 kts 145°
2026-04-11 14:47 53.44205 -1.25280 459 ft 40 kts 209°
2026-04-11 14:47 53.43981 -1.25217 456 ft 26 kts 197°
2026-04-11 14:47 53.43890 -1.25261 420 ft 4 kts 96°
2026-04-11 14:48 53.43898 -1.25266 439 ft 7 kts 122°
2026-04-11 14:48 53.43825 -1.25189 436 ft 26 kts 184°
2026-04-11 14:48 53.43628 -1.25335 439 ft 46 kts 202°
2026-04-11 14:49 53.43323 -1.25484 484 ft 49 kts 176°
2026-04-11 14:49 53.43387 -1.25297 447 ft 31 kts 253°
2026-04-11 14:49 53.43125 -1.25480 497 ft 56 kts 191°
2026-04-11 14:50 53.42808 -1.25245 456 ft 38 kts 167°
2026-04-11 14:50 53.42621 -1.25145 493 ft 41 kts 206°
2026-04-11 14:50 53.42283 -1.25374 583 ft 12 kts 334°
2026-04-11 14:50 53.42126 -1.25331 533 ft 40 kts 253°
2026-04-11 14:51 53.41834 -1.25536 506 ft 39 kts 205°
2026-04-11 14:51 53.41544 -1.25596 472 ft 47 kts 200°
2026-04-11 14:51 53.41263 -1.25740 479 ft 39 kts 209°
2026-04-11 14:51 53.40946 -1.25929 441 ft 56 kts 208°
2026-04-11 14:52 53.40644 -1.26258 647 ft 48 kts 232°
2026-04-11 14:52 53.40454 -1.26564 540 ft 25 kts 260°
2026-04-11 14:52 53.40451 -1.26585 526 ft 34 kts 207°
2026-04-11 14:52 53.40295 -1.26234 500 ft 36 kts 238°
2026-04-11 14:53 53.40461 -1.26703 744 ft 57 kts 57°
2026-04-11 14:53 53.40862 -1.25981 496 ft 78 kts
2026-04-11 14:53 53.40721 -1.26105 514 ft 18 kts 139°
2026-04-11 14:53 53.40835 -1.25617 442 ft 56 kts 153°
2026-04-11 14:54 53.40959 -1.25107 421 ft 47 kts 167°
2026-04-11 14:54 53.41093 -1.24530 399 ft 70 kts 88°
2026-04-11 14:54 53.41239 -1.23895 406 ft 46 kts 183°
2026-04-11 14:54 53.41266 -1.23306 421 ft 49 kts 158°
2026-04-11 14:55 53.41256 -1.22759 507 ft 50 kts 162°
2026-04-11 14:55 53.41284 -1.22248 500 ft 55 kts 104°
2026-04-11 14:55 53.41357 -1.21567 466 ft 54 kts 92°
2026-04-11 14:55 53.41384 -1.20884 450 ft 68 kts 99°
2026-04-11 14:56 53.41421 -1.20217 410 ft 42 kts 117°
2026-04-11 14:56 53.41371 -1.19630 474 ft 64 kts 112°
2026-04-11 14:56 53.41539 -1.19453 549 ft 14 kts 240°
2026-04-11 14:56 53.41393 -1.19564 552 ft 65 kts 137°
2026-04-11 14:57 53.41567 -1.18788 419 ft 62 kts 107°
2026-04-11 14:57 53.41705 -1.18264 361 ft 47 kts 111°
2026-04-11 14:57 53.41900 -1.17495 485 ft 73 kts 71°
2026-04-11 14:57 53.41884 -1.17048 506 ft 36 kts 231°
2026-04-11 14:58 53.42139 -1.16655 324 ft 87 kts 69°
2026-04-11 14:58 53.42360 -1.16128 389 ft 11 kts 213°
2026-04-11 14:58 53.42517 -1.15768 327 ft 68 kts 112°
2026-04-11 14:58 53.42294 -1.15877 321 ft 53 kts 238°
2026-04-11 14:59 53.42091 -1.16439 413 ft 53 kts 234°
2026-04-11 14:59 53.41862 -1.16921 439 ft 63 kts 227°
2026-04-11 14:59 53.41591 -1.17579 317 ft 68 kts 228°
2026-04-11 14:59 53.41349 -1.18060 403 ft 63 kts 233°
2026-04-11 15:00 53.41068 -1.18863 392 ft 64 kts 245°
2026-04-11 15:00 53.41372 -1.18067 480 ft 127 kts 71°
2026-04-11 15:00 53.41553 -1.17951 383 ft 37 kts 232°
2026-04-11 15:00 53.41442 -1.18446 407 ft 47 kts 241°
2026-04-11 15:01 53.41276 -1.18999 431 ft 59 kts 245°
2026-04-11 15:01 53.41065 -1.19727 419 ft 73 kts 232°
2026-04-11 15:01 53.40793 -1.20479 371 ft 77 kts 253°
2026-04-11 15:01 53.40776 -1.21155 449 ft 52 kts 259°
2026-04-11 15:02 53.40752 -1.21844 543 ft 59 kts 257°
2026-04-11 15:02 53.40644 -1.22656 651 ft 69 kts 237°
2026-04-11 15:02 53.40623 -1.23633 566 ft 90 kts 268°
2026-04-11 15:02 53.40365 -1.24392 551 ft 79 kts 253°
2026-04-11 15:03 53.40300 -1.25449 482 ft 102 kts 256°
2026-04-11 15:03 53.40469 -1.24813 852 ft 122 kts 71°
2026-04-11 15:03 53.40851 -1.23444 1072 ft 126 kts 72°
2026-04-11 15:03 53.41321 -1.22160 573 ft 130 kts 62°
2026-04-11 15:04 53.41548 -1.20991 472 ft 93 kts 113°
2026-04-11 15:04 53.41477 -1.20341 385 ft 33 kts 106°
2026-04-11 15:04 53.41498 -1.19977 348 ft 26 kts 291°
2026-04-11 15:04 53.41461 -1.20017 426 ft 51 kts 194°
2026-04-11 15:05 53.41225 -1.19816 493 ft 41 kts 146°
2026-04-11 15:05 53.41100 -1.19678 463 ft 46 kts 294°
2026-04-11 15:05 53.41338 -1.19825 298 ft 16 kts
2026-04-11 15:05 53.41370 -1.19820 273 ft 3 kts 354°
2026-04-11 15:06 53.41372 -1.19819 232 ft 1 kts 308°
2026-04-11 15:08 53.41362 -1.19822 233 ft 2 kts 296°
2026-04-11 15:09 53.41424 -1.19821 319 ft 41 kts 11°
2026-04-11 15:09 53.41553 -1.19508 427 ft 48 kts 152°
2026-04-11 15:09 53.41581 -1.18989 428 ft 35 kts 146°
2026-04-11 15:09 53.41552 -1.18877 429 ft 17 kts 276°
2026-04-11 15:10 53.41644 -1.18785 382 ft 60 kts 344°
2026-04-11 15:10 53.42155 -1.18545 909 ft 80 kts 10°
2026-04-11 15:10 53.42765 -1.18512 1216 ft 115 kts 353°
2026-04-11 15:10 53.43569 -1.18403 1429 ft 123 kts 355°
2026-04-11 15:11 53.44503 -1.18198 1352 ft 145 kts 360°
2026-04-11 15:11 53.45548 -1.17949 1259 ft 155 kts
2026-04-11 15:11 53.46628 -1.17699 1227 ft 157 kts
2026-04-11 15:11 53.47693 -1.17462 1216 ft 153 kts 359°
2026-04-11 15:12 53.48746 -1.17218 1211 ft 153 kts 359°
2026-04-11 15:12 53.49789 -1.16969 1216 ft 154 kts
2026-04-11 15:12 53.50852 -1.16728 1211 ft 154 kts 358°
2026-04-11 15:12 53.51913 -1.16495 1212 ft 154 kts 359°
2026-04-11 15:13 53.52977 -1.16272 1212 ft 155 kts 358°
2026-04-11 15:13 53.54049 -1.16065 1213 ft 155 kts 358°
2026-04-11 15:13 53.55119 -1.15852 1204 ft 155 kts 359°
2026-04-11 15:13 53.56188 -1.15624 1203 ft 155 kts 359°
2026-04-11 15:14 53.57251 -1.15398 1208 ft 154 kts 358°
2026-04-11 15:14 53.58319 -1.15169 1207 ft 156 kts 358°
2026-04-11 15:14 53.59402 -1.14947 1205 ft 158 kts 359°
2026-04-11 15:14 53.60502 -1.14748 1207 ft 159 kts 358°
2026-04-11 15:15 53.61600 -1.14554 1204 ft 158 kts 358°
2026-04-11 15:15 53.62681 -1.14364 1205 ft 155 kts 358°
2026-04-11 15:15 53.63749 -1.14161 1207 ft 154 kts 358°
2026-04-11 15:15 53.64810 -1.13936 1206 ft 154 kts 358°
2026-04-11 15:16 53.65879 -1.13701 1210 ft 156 kts 357°
2026-04-11 15:16 53.66963 -1.13467 1209 ft 158 kts 358°
2026-04-11 15:16 53.68049 -1.13245 1206 ft 156 kts 359°
2026-04-11 15:16 53.69135 -1.13055 1209 ft 157 kts 357°
2026-04-11 15:17 53.70226 -1.12870 1203 ft 157 kts 357°
2026-04-11 15:17 53.71308 -1.12687 1201 ft 155 kts 358°
2026-04-11 15:17 53.72375 -1.12516 1203 ft 153 kts 358°
2026-04-11 15:17 53.73432 -1.12350 1212 ft 152 kts 356°
2026-04-11 15:18 53.74492 -1.12180 1209 ft 153 kts 358°
2026-04-11 15:18 53.75556 -1.12029 1202 ft 154 kts 357°
2026-04-11 15:18 53.76633 -1.11884 1198 ft 156 kts 357°
2026-04-11 15:18 53.77719 -1.11758 1207 ft 154 kts 357°
2026-04-11 15:19 53.78668 -1.11637 793 ft 116 kts 353°
2026-04-11 15:19 53.79415 -1.11661 815 ft 109 kts 344°
2026-04-11 15:19 53.80177 -1.11895 816 ft 116 kts 334°
2026-04-11 15:19 53.80905 -1.12298 927 ft 108 kts 318°
2026-04-11 15:20 53.81551 -1.12994 929 ft 112 kts 314°
2026-04-11 15:20 53.82145 -1.13679 771 ft 96 kts 311°
2026-04-11 15:20 53.82628 -1.14324 632 ft 81 kts 306°
2026-04-11 15:20 53.83027 -1.15015 527 ft 85 kts 303°
2026-04-11 15:21 53.83447 -1.15755 480 ft 89 kts 302°
2026-04-11 15:21 53.83801 -1.16549 478 ft 75 kts 278°
2026-04-11 15:21 53.83891 -1.17039 369 ft 66 kts 252°
2026-04-11 15:21 53.83954 -1.17926 234 ft 82 kts 250°
2026-04-11 15:22 53.83807 -1.18650 84 ft 47 kts 233°
2026-04-11 15:22 53.83616 -1.19127 48 ft 42 kts 237°
2026-04-11 15:22 53.83479 -1.19556 48 ft 33 kts 290°
2026-04-11 15:22 53.83567 -1.19764 29 ft 3 kts 37°
2026-04-11 15:23 53.83568 -1.19762 27 ft 0 kts 40°